GW6175 Weather Reports


time (UTC)temp
C
wind
direction
speed
KPH
gust
KPH
rain 1hr
cm
rain 24hr
cm
rain mn
cm
humidity
%
barometer
mb
20260502235016 15 0.0 0.0 0.00 0.00 0.00 52 879.5
20260502234016 15 0.0 0.0 0.00 0.00 0.00 53 879.6
20260502233016 15 0.0 0.0 0.00 0.00 0.00 57 879.5
20260502232016 15 0.0 0.0 0.00 0.00 0.00 55 879.6
20260502231016 15 0.0 0.0 0.00 0.00 0.00 57 879.6
20260502230016 15 0.0 0.0 0.00 0.00 0.00 57 879.4
20260502225017 15 0.0 0.0 0.00 0.00 0.00 56 879.4
20260502224016 16 0.0 0.0 0.00 0.00 0.00 54 879.5
20260502223016 16 0.0 0.0 0.00 0.00 0.00 49 879.5
20260502222016 16 0.0 0.0 0.00 0.00 0.00 49 879.5
20260502221016 16 0.0 0.0 0.00 0.00 0.00 50 879.5
20260502220016 16 0.0 0.0 0.00 0.00 0.00 50 879.6
20260502215036 16 0.0 0.0 0.00 0.00 0.00 48 879.7
20260502214016 17 0.0 0.0 0.00 0.00 0.00 41 879.9
20260502213016 17 0.0 0.0 0.00 0.00 0.00 40 880.0
20260502212015 17 0.0 0.0 0.00 0.00 0.00 40 880.1
20260502211016 18 0.0 0.0 0.00 0.00 0.00 39 880.3
20260502210016 18 0.0 0.0 0.00 0.00 0.00 39 880.4
20260502205016 17 0.0 0.0 0.00 0.00 0.00 40 880.3
20260502204016 17 0.0 0.0 0.00 0.00 0.00 40 880.5
20260502203015 17 0.0 0.0 0.00 0.00 0.00 41 880.6
20260502202015 17 0.0 0.0 0.00 0.00 0.00 40 880.6
20260502201015 17 0.0 0.0 0.00 0.00 0.00 41 880.6
20260502200015 17 0.0 0.0 0.00 0.00 0.00 42 880.7
20260502195016 17 0.0 0.0 0.00 0.00 0.00 41 880.6
20260502194015 17 0.0 0.0 0.00 0.00 0.00 41 880.6
20260502193015 18 0.0 0.0 0.00 0.00 0.00 41 880.8
20260502192017 17 0.0 0.0 0.00 0.00 0.00 42 880.8
20260502191017 18 0.0 0.0 0.00 0.00 0.00 41 880.9
20260502190037 17 0.0 0.0 0.00 0.00 0.00 44 881.0
20260502185039 16 0.0 0.0 0.00 0.00 0.00 43 881.1
20260502184017 16 0.0 0.0 0.00 0.00 0.00 45 881.3
20260502182017 16 0.0 0.0 0.00 0.00 0.00 46 881.4
20260502181017 16 0.0 0.0 0.00 0.00 0.00 46 881.6
20260502180138 16 0.0 0.0 0.00 0.00 0.00 47 881.7
20260502164018 14 0.0 0.0 0.00 0.00 0.00 51 881.9
20260502163017 13 0.0 0.0 0.00 0.00 0.00 52 881.9
20260502162017 13 0.0 0.0 0.00 0.00 0.00 52 881.8
20260502161017 13 0.0 0.0 0.00 0.00 0.00 55 881.7
20260502152037 11 0.0 0.0 0.00 0.00 0.00 61 881.6
20260502151017 11 0.0 0.0 0.00 0.00 0.00 62 881.4
20260502123016 8 0.0 0.0 0.00 0.03 0.00 71 880.7
20260502122016 8 0.0 0.0 0.00 0.08 0.00 70 880.6
20260502121016 8 0.0 0.0 0.00 0.13 0.00 71 880.7
20260502115016 8 0.0 0.0 0.00 0.13 0.00 70 880.7
20260502114016 7 0.0 0.0 0.00 0.13 0.00 71 880.7
20260502113036 7 0.0 0.0 0.00 0.13 0.00 71 880.7
20260502112036 7 0.0 0.0 0.00 0.13 0.00 71 880.6
20260502111016 7 0.0 0.0 0.00 0.13 0.00 71 880.7
20260502110036 7 0.0 0.0 0.00 0.13 0.00 71 880.6
20260502105016 7 0.0 0.0 0.00 0.13 0.00 71 880.6
20260502104016 7 0.0 0.0 0.00 0.13 0.00 71 880.5
20260502103036 7 0.0 0.0 0.00 0.13 0.00 71 880.5
20260502102016 7 0.0 0.0 0.00 0.13 0.00 71 880.2
20260502101016 8 0.0 0.0 0.00 0.13 0.00 70 880.3
20260502091015 8 0.0 0.0 0.00 0.13 0.00 69 880.1
20260502071037 8 0.0 0.0 0.00 0.13 0.00 70 880.1
20260502070017 8 0.0 0.0 0.00 0.13 0.00 70 880.0
20260502065017 8 0.0 0.0 0.00 0.13 0.00 70 879.9
20260502064037 8 0.0 0.0 0.00 0.13 0.00 70 879.9
20260502063017 8 0.0 0.0 0.00 0.13 0.00 70 879.9
20260502062017 8 0.0 0.0 0.00 0.13 0.00 69 880.0
20260502061017 8 0.0 0.0 0.00 0.13 0.00 69 879.8
20260502060017 8 0.0 0.0 0.00 0.13 0.00 69 879.6
20260502055017 8 0.0 0.0 0.00 0.13 0.00 70 879.4
20260502054017 8 0.0 0.0 0.00 0.13 0.00 69 879.6
20260502053018 8 0.0 0.0 0.00 0.13 0.00 70 879.8
20260502052017 8 0.0 0.0 0.00 0.13 0.00 69 879.6
20260502051017 8 0.0 0.0 0.00 0.13 0.00 69 879.7
20260502050124 8 0.0 0.0 0.00 0.13 0.00 69 879.7
20260502045017 8 0.0 0.0 0.00 0.13 0.00 70 879.6
20260502044016 8 0.0 0.0 0.00 0.13 0.00 70 879.6
20260502043018 8 0.0 0.0 0.00 0.13 0.00 70 879.6
20260502042017 8 0.0 0.0 0.00 0.13 0.00 70 879.7
20260502041017 8 0.0 0.0 0.00 0.13 0.00 70 879.6
20260502040016 8 0.0 0.0 0.00 0.13 0.00 69 879.3
20260502035017 8 0.0 0.0 0.00 0.13 0.00 69 879.1
20260502034016 9 0.0 0.0 0.00 0.13 0.00 68 878.9
20260502033017 9 0.0 0.0 0.00 0.13 0.00 68 878.6
20260502032037 9 0.0 0.0 0.00 0.13 0.00 68 878.5
20260502031016 9 0.0 0.0 0.00 0.13 0.00 67 878.4
20260502030016 9 0.0 0.0 0.00 0.13 0.00 68 878.1
20260502025016 9 0.0 0.0 0.00 0.13 0.00 68 878.0
20260502024016 9 0.0 0.0 0.00 0.13 0.00 67 877.8
20260502023016 10 0.0 0.0 0.00 0.13 0.00 66 877.6
20260502022036 10 0.0 0.0 0.00 0.13 0.00 65 877.6
20260502021038 10 0.0 0.0 0.00 0.13 0.00 64 877.4
20260502020016 10 0.0 0.0 0.00 0.13 0.00 64 877.5
20260502015016 10 0.0 0.0 0.00 0.13 0.00 63 877.1
20260502014018 11 0.0 0.0 0.00 0.13 0.00 62 877.1
20260502013018 11 0.0 0.0 0.00 0.13 0.00 61 876.7
20260502012016 11 0.0 0.0 0.00 0.13 0.00 61 876.5
20260502011036 11 0.0 0.0 0.00 0.13 0.00 60 876.3
20260502010016 11 0.0 0.0 0.00 0.13 0.00 59 876.2
20260502005036 12 0.0 0.0 0.00 0.13 0.00 57 876.1
20260502004017 12 0.0 0.0 0.00 0.13 0.00 56 876.0
20260502003016 13 0.0 0.0 0.00 0.13 0.00 54 875.9
20260502002016 13 0.0 0.0 0.00 0.13 0.00 53 875.7
20260502001016 14 0.0 0.0 0.00 0.13 0.00 51 875.5
20260502000016 15 0.0 0.0 0.00 0.13 0.13 50 875.5